RJOARJFU

Guest
Details From RJOA - HIROSHIMA
To RJFU - NAGASAKI
Flight Number -
Tags decoded
Created
Modified
Stats Distance 190 nm / 352 km
Max Altitude 0 ft / 0 m
Waypoints 6
Social Downloads 0
Likes 0
Share VATSIM

Download

Looking for another format? Having issues loading an existing format? Contact us
Advertisement - Login to hide

Notes

Requested: RJOA IWC SWE DGC SGE JBT RJFU Unmatched points: JBT

Route

RJOA IWC SWE DGC SGE RJFU

ID Type Via Altitude Latitude Longitude Leg Dist Tot Dist Heading (true) Name
O RJOA APT - 0 ft / 0 m 34.43603˚ 132.91944˚ - 0 nm - HIROSHIMA
IWC VOR - 0 ft / 0 m 34.07946˚ 132.14727˚ 43 nm 43 nm 241° / 241° KUGA VORTAC
SWE VOR - 0 ft / 0 m 33.85662˚ 131.02940˚ 57 nm 101 nm 257° / 256° SUOH VOR-DME
DGC VOR - 0 ft / 0 m 33.67621˚ 130.38963˚ 33 nm 134 nm 251° / 251° FUKUOKA VORTAC
SGE VOR - 0 ft / 0 m 33.14862˚ 130.29290˚ 32 nm 166 nm 189° / 189° SAGA VOR-DME
O RJFU APT - 0 ft / 0 m 32.92250˚ 129.92346˚ 23 nm 189 nm 234° / 234° NAGASAKI

Altitude Profile

Advertisement - Login to hide

Weather


0- 5 10 15 20 25 30 35+ Temperature / ° C

Clouds and Precipitation
Forecast for 2018-05-26 06:00 UTC. Updated 3 hours ago

Ground ~20,000 ft ~40,000 ft Winds

RJOA

Details ICAO RJOA (HIJ)
Name HIROSHIMA
Region Japan
Timezone Asia/Tokyo (UTC+9.0)
Stats Elevation 1,088 ft / 332 m (AMSL)
Location 34.436025° 132.919444°
Runways 1
Magnetic Variation 7.728° W

METAR

RJOA 260800Z 20005KT 160V250 9999 FEW030 23/14 Q1008

Decode

TAF

TAF RJOA 260505Z 2606/2712 22004KT 9999 FEW030

Decode

Departure Runways

ID Width Length Bearing (true) Bearing (mag) Surface Threshold Offset Overrun Length
10 200 ft / 61 m 9,823 ft / 2,994 m 89.99° 97.72° Asphalt 0 ft / 0 m 210 ft / 64 m
28 200 ft / 61 m 9,823 ft / 2,994 m 270.01° 277.74° Asphalt 0 ft / 0 m 210 ft / 64 m

RJFU

Details ICAO RJFU (NGS)
Name NAGASAKI
Region Japan
Timezone Asia/Tokyo (UTC+9.0)
Stats Elevation 15 ft / 5 m (AMSL)
Location 32.922505° 129.923457°
Runways 2
Magnetic Variation 7.271° W

METAR

RJFU 260800Z 22006KT 9999 FEW035 26/16 Q1005

Decode

TAF

TAF RJFU 260513Z 2606/2712 32010KT 9999 FEW020 BECMG 2609/2611 14005KT BECMG 2700/2703 34006KT BECMG 2709/2712 14005KT

Decode

Destination Runways

ID Width Length Bearing (true) Bearing (mag) Surface Threshold Offset Overrun Length
14 200 ft / 61 m 9,851 ft / 3,003 m 138.12° 145.39° Asphalt 0 ft / 0 m 200 ft / 61 m
18 100 ft / 30 m 4,363 ft / 1,330 m 174.19° 181.46° Asphalt 245 ft / 75 m 0 ft / 0 m
32 200 ft / 61 m 9,851 ft / 3,003 m 318.14° 325.41° Asphalt 0 ft / 0 m 200 ft / 61 m
36 100 ft / 30 m 4,363 ft / 1,330 m 354.19° 1.46° Asphalt 245 ft / 75 m 0 ft / 0 m

Approach Navaids

Runway Type Ident Frequency Range Bearing (true) Bearing (mag) Slope Elevation
32 Localiser IOM 110.90 MHz 18 nm / 33 km 318.95° 326.22° - 30 ft / 9 m (AMSL)
32 Glidescope IOM 110.90 MHz 10 nm / 19 km 318.13° 325.40° 3.00° 15 ft / 5 m (AMSL)
32 DME IOM 110.90 MHz 18 nm / 33 km - - - 30 ft / 9 m (AMSL)

Popular Alternatives